Temp
85 83 82 82 80 76 74 72 70 70 70 70 70 69 69 69 67 65 65 64 64 66 66 63 66 66 65 63 62 65 65 64
84 79 78 78 76 74 72 69 68 69 70 69 68 67 67 66 65 63 63 63 63 63 65 64 64 63 61 61 61 62 64 63
80 76 75 74 73 72 71 69 68 71 73 73 72 69 68 67 65 62 62 61 61 62 61 62 60 61 59 59 58 59 63 62
77 72 71 71 71 71 71 70 70 72 73 70 69 67 65 64 63 63 60 60 59 59 59 59 60 60 58 57 56 56 56 60
79 73 70 70 71 71 72 72 71 71 69 68 65 66 65 67 65 62 60 59 58 58 58 58 57 58 56 56 57 56 56 55
79 74 72 72 71 69 70 71 71 68 67 69 67 68 65 65 62 59 58 57 57 57 56 55 55 56 54 53 53 53 55 54
82 77 74 72 72 69 69 68 68 67 67 67 66 66 63 61 60 59 59 58 56 54 54 53 53 53 52 53 53 51 52 53
78 73 71 70 68 66 66 66 65 66 65 65 65 63 62 60 60 59 57 55 53 50 53 51 51 50 51 51 50 51 51 50
73 74 71 69 65 64 63 64 63 63 62 62 61 60 59 58 56 56 55 53 51 50 50 50 50 50 51 51 52 51 51 51
68 71 69 67 63 62 61 63 61 60 60 58 58 58 56 54 53 52 51 50 50 50 50 49 49 49 49 51 50 49 51 50
66 68 67 66 65 64 62 63 60 59 57 56 54 53 53 51 50 49 49 49 50 50 49 49 48 49 49 50 50 48 48 48
64 66 67 67 65 63 61 59 58 54 53 53 51 49 49 49 48 48 49 50 49 49 49 48 48 48 48 48 47 47 46 46
66 66 66 65 63 61 58 57 52 52 51 49 47 47 48 47 47 48 49 49 49 49 48 48 47 47 47 46 45 45 44 44
64 65 64 63 61 59 53 49 48 48 48 47 45 44 47 47 48 48 49 49 47 48 48 46 46 45 45 45 45 44 43 42
63 61 60 59 58 55 51 49 49 48 47 46 42 42 46 46 47 48 47 48 47 47 46 45 44 44 44 44 44 44 43 41
61 61 60 58 56 55 54 50 50 51 47 43 42 42 45 43 44 46 46 46 46 47 45 44 44 43 41 41 43 42 41 40
63 64 64 61 58 56 56 53 51 50 44 40 36 38 38 40 42 42 43 43 44 43 43 43 41 38 31 31 37 40 38 36
62 62 62 62 62 58 55 54 51 47 45 37 33 35 34 34 38 41 40 38 39 36 34 35 32 31 29 30 32 35 33 31
57 57 58 58 60 59 56 52 47 42 36 33 34 33 31 33 33 32 32 32 32 32 32 32 32 30 28 28 29 31 30 29
MSLP
1005.93 1007.47 1008.65 1009.59 1010.41 1011.57 1012.56 1013.27 1014.01 1014.55 1015.00 1015.47 1015.84 1016.34 1016.66 1017.13 1017.62 1018.19 1018.25 1018.55 1018.67 1018.46 1018.62 1018.84 1018.41 1018.39 1018.40 1018.52 1017.87 1017.49 1017.03 1016.62
1005.96 1007.89 1009.06 1009.99 1010.75 1011.58 1012.48 1013.27 1014.07 1014.40 1014.70 1015.01 1015.65 1016.15 1016.84 1017.48 1018.02 1018.50 1018.61 1018.69 1018.66 1018.71 1018.85 1018.90 1018.63 1018.88 1019.26 1019.01 1018.71 1017.78 1016.98 1017.16
1005.51 1007.70 1008.90 1009.92 1010.78 1011.68 1012.59 1013.55 1014.24 1014.32 1014.34 1014.53 1015.02 1015.88 1016.62 1017.35 1018.19 1018.78 1019.14 1019.23 1019.20 1019.33 1019.23 1019.51 1019.63 1019.13 1019.31 1019.36 1019.29 1018.50 1017.55 1017.77
1004.93 1007.47 1008.89 1010.11 1010.78 1011.43 1012.20 1013.08 1013.73 1013.89 1014.15 1015.09 1015.74 1016.53 1017.23 1017.63 1018.25 1018.69 1019.22 1019.47 1019.79 1019.93 1019.96 1019.69 1019.94 1019.86 1019.96 1019.83 1019.76 1019.42 1018.84 1018.32
1004.21 1006.81 1008.63 1009.87 1010.72 1011.59 1012.04 1012.58 1013.24 1013.88 1014.66 1014.93 1015.54 1015.81 1016.20 1016.76 1017.79 1018.69 1019.29 1019.71 1020.09 1020.22 1020.27 1020.06 1020.16 1020.40 1020.67 1020.60 1020.28 1020.03 1019.58 1018.98
1003.48 1006.04 1007.92 1009.41 1010.55 1011.72 1012.33 1012.64 1013.11 1013.95 1014.56 1014.68 1015.22 1015.11 1015.97 1017.27 1018.28 1019.03 1019.68 1020.10 1020.29 1020.53 1020.57 1020.66 1020.81 1020.94 1021.24 1021.27 1020.87 1020.73 1020.35 1020.02
1003.02 1005.63 1007.94 1009.05 1010.19 1011.38 1012.20 1012.82 1013.23 1014.04 1014.62 1014.96 1015.26 1015.46 1016.48 1017.39 1018.21 1018.66 1019.21 1019.88 1020.41 1020.76 1020.82 1021.21 1021.39 1021.38 1021.59 1021.45 1021.28 1021.35 1020.97 1020.90
1003.62 1005.65 1007.79 1009.19 1010.40 1011.66 1012.55 1013.20 1013.52 1014.18 1014.74 1015.22 1015.64 1016.33 1016.97 1017.52 1018.11 1018.61 1019.45 1020.25 1020.67 1021.20 1020.97 1021.28 1021.72 1022.08 1021.96 1021.71 1021.58 1021.50 1021.23 1021.18
1005.06 1006.25 1008.11 1009.49 1010.85 1012.03 1012.91 1013.33 1013.85 1014.56 1015.04 1015.56 1016.31 1017.01 1017.49 1018.16 1018.68 1019.42 1019.86 1020.52 1021.24 1021.39 1021.52 1021.76 1021.98 1022.15 1021.84 1021.95 1021.79 1021.64 1021.84 1021.55
1006.25 1006.99 1008.28 1009.67 1011.08 1012.18 1013.15 1013.48 1014.40 1015.18 1015.80 1016.43 1017.10 1017.53 1018.11 1018.81 1019.37 1019.95 1020.41 1020.74 1021.36 1021.73 1021.66 1021.85 1022.10 1022.15 1022.13 1021.57 1021.88 1022.26 1021.98 1021.93
1006.94 1007.51 1008.49 1009.58 1010.86 1012.19 1013.19 1013.73 1014.69 1015.59 1016.35 1017.03 1017.82 1018.40 1018.77 1019.45 1019.93 1020.18 1020.59 1021.19 1021.28 1021.78 1021.69 1022.02 1022.22 1022.32 1022.04 1021.79 1022.06 1022.69 1022.55 1022.51
1007.58 1008.05 1008.73 1009.77 1010.88 1012.25 1013.75 1014.65 1015.22 1016.07 1016.87 1017.51 1018.19 1018.81 1019.37 1019.78 1019.96 1020.21 1020.95 1021.08 1022.02 1021.94 1021.97 1022.26 1022.37 1022.77 1022.37 1022.14 1022.65 1022.91 1022.79 1022.71
1007.77 1008.21 1008.82 1009.76 1010.97 1012.26 1013.86 1014.98 1015.98 1016.94 1017.68 1018.09 1018.67 1019.36 1019.79 1019.90 1020.06 1020.45 1020.97 1021.51 1022.05 1022.04 1022.08 1022.21 1022.93 1022.87 1022.74 1022.92 1023.04 1023.40 1023.28 1022.76
1008.18 1008.62 1009.13 1010.00 1011.26 1012.50 1014.06 1015.37 1016.38 1016.94 1017.71 1018.23 1019.05 1019.47 1019.70 1020.19 1020.25 1020.55 1020.95 1021.43 1022.02 1022.07 1022.31 1022.82 1022.84 1023.11 1023.44 1023.63 1023.04 1023.58 1023.75 1023.38
1008.04 1008.88 1009.70 1010.51 1011.59 1012.66 1014.14 1014.98 1015.90 1016.78 1017.14 1018.28 1019.00 1019.34 1020.00 1020.00 1020.41 1020.90 1021.32 1021.78 1021.91 1022.29 1022.70 1023.08 1023.24 1023.42 1023.97 1023.99 1023.34 1023.50 1024.07 1024.09
1007.56 1008.21 1009.29 1010.20 1011.28 1012.17 1013.22 1014.41 1014.82 1015.89 1016.99 1017.70 1018.54 1019.62 1020.11 1020.23 1020.64 1021.19 1021.57 1021.73 1022.25 1022.58 1022.93 1023.20 1023.44 1024.00 1024.88 1024.89 1023.93 1023.94 1024.44 1024.40
1007.25 1007.47 1008.13 1009.15 1010.18 1011.13 1012.09 1013.40 1014.52 1015.62 1017.02 1017.93 1018.86 1019.72 1020.12 1020.56 1021.01 1021.63 1021.88 1022.16 1022.51 1023.03 1023.19 1023.43 1023.98 1025.17 1026.50 1026.04 1024.57 1024.55 1025.12 1025.28
1007.56 1007.84 1008.15 1008.51 1008.92 1010.25 1011.33 1012.56 1013.91 1015.48 1016.65 1018.42 1019.32 1020.04 1020.74 1021.08 1021.61 1021.96 1022.45 1022.70 1022.89 1023.89 1024.42 1024.57 1025.15 1026.18 1026.96 1026.71 1025.85 1025.54 1026.03 1026.35
1009.09 1009.08 1009.12 1009.53 1009.63 1010.29 1011.49 1012.92 1014.31 1015.49 1017.04 1018.30 1019.34 1020.17 1020.89 1021.65 1022.01 1022.73 1023.21 1023.62 1023.85 1024.43 1025.08 1025.35 1025.64 1026.46 1027.30 1027.24 1026.75 1026.53 1026.67 1026.87
Wind_Speed
16 15 14 13 13 14 13 12 13 12 9 9 7 7 7 6 6 6 6 7 6 4 5 6 5 6 6 8 8 8 8 9
17 14 13 13 13 15 15 14 13 10 9 8 8 7 7 6 6 7 7 6 6 6 5 6 6 6 8 9 8 9 6 10
20 18 16 15 14 15 14 14 13 10 8 7 7 7 6 7 6 7 7 7 8 7 6 6 7 4 7 8 9 7 5 8
21 19 18 16 15 15 15 15 15 10 9 7 7 7 7 6 7 6 7 7 7 6 6 6 6 6 6 7 8 9 7 6
21 20 18 16 15 14 15 15 14 10 10 9 11 8 8 7 5 7 6 7 6 6 6 7 6 5 6 6 7 7 7 6
21 20 18 16 14 12 13 13 13 12 12 10 9 8 9 7 6 8 7 6 7 6 7 7 6 5 6 7 7 8 6 7
17 19 16 15 14 14 13 13 13 12 11 9 9 8 10 8 8 6 5 5 5 6 6 6 6 5 6 5 6 7 7 6
9 17 15 14 14 13 11 13 12 11 10 9 8 9 9 9 8 6 6 4 4 5 5 6 5 5 5 4 5 5 6 6
5 11 13 13 13 13 12 13 12 12 11 10 9 9 6 6 6 5 4 5 4 5 5 5 5 4 5 5 5 4 5 5
5 9 12 12 13 13 12 13 12 11 11 10 10 8 9 8 8 7 5 6 5 5 5 5 5 5 5 4 5 5 4 4
6 8 12 12 13 13 13 12 12 12 11 10 8 9 9 8 7 8 7 6 6 5 5 5 4 4 5 4 3 5 5 4
5 7 9 11 12 12 10 10 12 11 10 10 10 9 9 9 8 8 6 6 5 5 5 5 5 4 5 5 4 4 4 5
2 7 9 11 11 12 12 10 10 10 10 9 9 9 8 8 8 8 7 6 5 5 5 5 4 4 5 5 5 5 5 6
1 4 8 10 11 11 11 10 11 12 10 11 9 7 8 8 9 9 8 8 6 6 5 5 5 4 4 4 5 5 6 7
1 4 7 9 12 13 14 15 13 13 14 12 10 9 9 9 8 8 8 7 7 6 6 6 5 5 4 3 5 5 5 7
12 9 11 12 13 14 14 14 16 15 12 10 10 9 9 8 9 8 7 7 6 6 6 6 6 5 6 7 5 6 6 7
10 12 13 13 14 15 16 16 15 15 13 10 10 9 9 8 8 7 8 8 7 5 6 6 7 7 7 10 10 6 7 8
7 7 8 11 14 14 15 14 14 15 14 13 11 10 9 7 8 10 7 7 9 8 6 8 9 8 7 8 10 8 8 7
5 5 4 5 5 9 9 13 13 11 12 13 12 12 10 9 7 8 7 7 7 7 7 4 8 7 6 5 5 6 6 7
Wind_Direction
190 179 188 184 166 160 156 155 149 145 138 137 130 128 123 115 102 87 79 74 57 37 57 34 10 18 10 358 349 346 326 340
184 179 180 187 167 171 168 157 161 159 159 154 149 140 127 116 102 98 87 76 72 48 43 36 16 36 11 8 351 349 358 355
178 183 185 192 179 176 172 168 170 180 169 167 144 138 130 114 106 95 79 70 57 62 46 40 25 29 35 19 5 354 7 18
179 188 192 192 186 183 177 176 180 182 145 126 129 118 133 143 141 115 86 79 69 62 59 54 30 21 24 24 15 16 347 22
181 188 191 194 191 187 187 177 179 166 167 162 165 167 166 141 129 115 108 93 77 69 62 58 53 42 25 16 22 2 6 11
188 185 189 190 185 185 200 180 179 163 186 174 181 189 114 138 127 139 110 101 81 69 58 53 48 45 37 20 21 16 17 2
187 170 183 188 182 185 195 186 182 173 186 186 192 157 154 153 154 151 135 117 104 75 72 64 48 44 30 28 27 26 19 21
190 162 187 188 180 185 189 196 184 174 177 174 170 155 163 157 160 141 142 129 109 83 79 69 58 43 40 28 37 35 34 29
205 182 187 188 177 182 191 194 173 172 167 156 146 149 151 131 124 133 114 111 100 102 92 83 74 52 44 23 38 34 22 19
194 184 183 185 181 186 193 187 166 163 161 152 156 149 144 132 125 130 120 122 124 110 102 89 65 62 49 40 49 10 16 19
201 202 182 187 185 181 191 176 169 167 157 150 150 144 132 133 136 131 119 127 122 138 109 96 93 67 58 46 41 36 13 28
204 209 186 190 173 176 181 181 169 154 158 151 147 140 143 146 138 126 141 121 149 122 109 104 77 79 61 64 57 38 34 31
185 192 183 180 175 170 178 174 154 164 157 150 146 145 154 146 136 135 138 137 145 126 120 112 125 83 68 66 54 40 33 42
65 206 192 185 182 180 157 167 178 172 161 156 151 144 163 161 150 147 150 152 141 131 129 132 109 90 91 79 86 65 47 44
61 203 198 199 194 181 184 183 180 183 160 164 161 170 174 156 144 152 154 152 148 140 133 119 110 101 92 91 87 74 61 59
246 228 199 198 203 196 191 190 182 180 170 165 152 163 164 138 150 155 152 152 147 139 129 118 98 73 31 356 85 70 50 54
265 264 212 213 208 204 197 190 188 176 173 154 139 130 158 160 144 155 156 145 139 134 127 122 99 73 39 18 357 80 63 48
301 252 262 259 212 197 205 190 166 173 164 149 143 150 137 131 145 167 153 133 121 116 55 85 78 89 63 46 29 61 74 56
336 333 297 275 249 194 184 160 163 148 143 149 153 146 136 148 115 118 124 108 118 111 125 116 109 101 98 81 72 94 90 70